This is the latest recevied weather packets stored in our database for station/object XE2KK-10. If no packets are shown the sender has not sent any weather packets the latest 10 day(s).
| Time | Temp. | Humidity | Pressure | Rain* | Wind** | Luminosity | Snow |
|---|---|---|---|---|---|---|---|
| 1777514353 | 33.33° C | 47% | 1008.3 hPa | 0 mm | - | 0 W/m² | - |
| 1777514053 | 33.33° C | 47% | 1008.5 hPa | 0 mm | - | 0 W/m² | - |
| 1777513752 | 33.33° C | 47% | 1008.2 hPa | 0 mm | - | 0 W/m² | - |
| 1777513452 | 33.33° C | 46% | 1008.1 hPa | 0 mm | - | 0 W/m² | - |
| 1777513153 | 33.33° C | 45% | 1008 hPa | 0 mm | - | 0 W/m² | - |
| 1777512853 | 33.33° C | 45% | 1008.2 hPa | 0 mm | - | 0 W/m² | - |
| 1777512553 | 33.89° C | 44% | 1007.8 hPa | 0 mm | - | 0 W/m² | - |
| 1777512253 | 33.89° C | 43% | 1007.8 hPa | 0 mm | - | 0 W/m² | - |
| 1777511952 | 33.89° C | 43% | 1008 hPa | 0 mm | - | 0 W/m² | - |
| 1777511652 | 33.89° C | 42% | 1007.7 hPa | 0 mm | - | 0 W/m² | - |
| 1777511353 | 33.89° C | 42% | 1007.6 hPa | 0 mm | - | 4 W/m² | - |
| 1777511053 | 34.44° C | 41% | 1007.5 hPa | 0 mm | - | 7 W/m² | - |
| 1777510753 | 34.44° C | 41% | 1007.5 hPa | 0 mm | - | 13 W/m² | - |
| 1777510453 | 34.44° C | 41% | 1007.2 hPa | 0 mm | - | 21 W/m² | - |
| 1777510152 | 34.44° C | 40% | 1007.1 hPa | 0 mm | - | 35 W/m² | - |
| 1777509852 | 34.44° C | 39% | 1007.2 hPa | 0 mm | - | 58 W/m² | - |
| 1777509553 | 35° C | 39% | 1007.2 hPa | 0 mm | - | 80 W/m² | - |
| 1777509253 | 35° C | 38% | 1007 hPa | 0 mm | - | 90 W/m² | - |
| 1777508953 | 35° C | 39% | 1007 hPa | 0 mm | - | 94 W/m² | - |
| 1777508653 | 35° C | 39% | 1006.8 hPa | 0 mm | - | 92 W/m² | - |
| 1777508352 | 35° C | 40% | 1006.8 hPa | 0 mm | - | 82 W/m² | - |
| 1777508052 | 35° C | 40% | 1007 hPa | 0 mm | - | 84 W/m² | - |
| 1777507753 | 35° C | 40% | 1006.6 hPa | 0 mm | - | 81 W/m² | - |
| 1777507453 | 35.56° C | 40% | 1006.4 hPa | 0 mm | - | 82 W/m² | - |
| 1777507153 | 35.56° C | 38% | 1006.7 hPa | 0 mm | - | 86 W/m² | - |
* Rain latest hour (hover to see other rain measurements)
** Current wind speed in m/s (hover to see current wind gust speed)